Theta_e
340 341 340 339 339 340 344 347 346 347 347 348 348 349 349 349 348 348 348 348 346 342 341 342 343 344 348 346 346 345 346 345 345 344 345 345 344 344 343 343 343 343 342 343 341 342 343 343 343 343 342 342 341 331 330 331 330 333 333 337 337 332
338 339 339 340 340 341 343 345 339 340 341 345 347 348 346 345 348 343 348 344 343 344 338 338 342 347 345 346 345 346 344 345 345 345 344 344 344 344 344 343 343 343 343 340 335 328 334 344 343 343 342 339 330 329 330 330 331 332 335 334 334 336
338 338 339 338 339 338 338 338 336 337 341 346 346 345 342 342 338 340 341 341 340 338 337 338 338 344 344 347 346 346 346 345 344 345 344 344 344 344 344 344 343 343 340 336 328 327 326 327 337 343 341 332 329 329 329 330 331 333 332 333 331 337
339 339 339 338 338 338 337 337 337 337 339 340 340 341 339 338 338 338 338 337 336 337 334 331 345 347 348 340 338 345 346 345 344 345 343 344 345 345 344 344 343 342 336 331 329 328 326 326 329 331 329 329 329 329 329 330 331 331 331 335 330 338
340 341 341 342 342 339 337 336 336 337 339 342 340 337 337 335 335 335 335 335 335 335 332 331 331 335 339 335 333 334 337 336 335 335 343 332 333 334 335 330 332 334 330 331 329 328 328 328 330 331 329 329 329 329 329 331 331 331 331 334 334 338
341 341 341 342 341 342 339 336 336 337 338 341 339 336 335 334 333 334 333 334 337 331 331 330 328 330 332 332 332 332 333 333 333 334 340 334 332 332 333 332 331 331 331 333 331 329 332 331 330 330 330 329 329 329 329 330 330 331 331 332 335 338
340 340 341 342 341 341 337 335 335 337 339 338 336 336 336 333 332 332 333 337 332 329 329 328 329 330 330 332 333 332 333 332 333 333 337 334 332 332 332 334 332 331 329 333 331 331 329 329 330 330 330 329 329 329 329 329 330 330 330 331 334 338
339 341 341 341 341 340 337 335 337 343 340 341 337 334 333 332 334 333 334 336 335 330 330 331 331 331 331 331 333 333 332 332 332 332 333 335 334 333 333 334 333 332 332 332 332 332 330 330 330 331 331 330 329 329 329 329 329 329 329 330 332 337
340 341 340 340 339 338 338 336 338 338 337 342 333 332 332 333 333 335 335 336 337 330 330 330 330 331 331 331 332 333 333 333 332 332 332 333 333 331 331 333 334 334 333 333 332 332 332 331 331 331 331 331 329 328 328 328 329 329 329 329 331 335
339 340 339 338 336 337 337 337 336 335 334 340 332 332 333 332 332 334 334 335 336 331 331 331 330 330 331 332 332 332 333 332 332 332 331 332 333 331 331 331 333 334 335 334 334 334 334 331 331 332 330 331 329 329 329 328 328 328 328 329 330 332
339 340 338 337 335 336 337 337 337 333 333 333 334 335 333 331 332 332 333 334 335 336 332 331 330 330 330 330 331 331 331 332 333 333 332 331 331 332 330 331 332 334 335 336 336 335 334 333 330 330 331 331 330 329 328 329 329 329 328 329 330 331
337 339 338 336 337 335 335 336 335 333 333 333 334 332 332 333 335 333 335 333 334 334 337 332 332 331 332 331 331 331 331 332 333 334 333 332 331 330 330 330 332 334 335 336 336 335 334 333 330 328 329 330 330 329 328 328 328 328 329 329 329 330
338 338 336 337 336 334 332 334 335 333 336 337 334 333 331 332 333 333 334 334 334 335 336 334 332 333 336 336 336 335 334 333 333 334 334 333 333 332 331 331 330 332 332 334 334 333 332 329 329 328 329 329 330 329 328 328 328 328 328 329 329 330
339 338 337 338 338 336 335 334 333 332 337 336 333 333 333 332 334 335 335 335 336 337 338 336 334 332 333 335 336 336 335 335 335 334 334 334 333 332 331 329 329 330 333 332 330 330 330 330 330 329 328 329 329 329 328 328 328 328 329 329 329 329
338 338 339 338 338 337 338 338 338 335 337 339 338 335 332 332 333 334 335 336 337 337 338 338 337 334 332 332 333 334 334 335 335 334 333 333 333 332 331 330 331 329 328 328 329 330 330 330 329 329 329 329 328 329 328 328 329 328 328 329 329 329
338 338 338 338 337 338 338 338 338 339 337 339 339 337 334 332 332 334 335 336 336 337 338 338 338 338 336 336 335 335 335 334 334 334 333 332 333 332 331 330 330 329 329 328 327 328 329 328 328 329 328 329 329 330 328 328 328 328 328 329 328 329
337 337 337 338 336 337 337 337 337 339 338 338 337 336 333 331 331 333 334 335 336 337 338 338 339 339 338 338 338 337 337 334 332 333 333 332 332 332 331 330 330 330 328 328 327 327 327 327 328 328 328 328 329 330 328 328 328 329 329 328 328 328
337 336 336 336 336 336 337 338 338 338 340 337 336 334 333 332 332 332 331 333 335 337 338 337 337 338 338 338 338 336 334 333 332 332 332 332 332 331 331 330 330 329 328 328 328 327 327 327 327 327 327 328 329 329 329 329 328 331 329 328 328 328
335 335 335 337 338 336 336 335 335 335 336 335 334 333 332 331 331 331 330 330 331 334 337 337 336 337 337 337 337 336 334 333 333 334 333 332 332 331 331 330 329 330 330 329 328 328 328 328 326 326 326 327 328 329 328 329 329 329 329 328 328 329
333 334 336 336 336 333 331 332 331 329 328 328 329 332 332 331 331 331 332 332 331 330 332 335 334 334 336 337 336 335 334 334 333 334 333 332 331 331 330 329 329 329 329 329 330 329 328 327 326 324 326 326 327 327 328 328 328 328 329 328 328 330
330 333 332 332 332 330 328 327 327 326 327 327 328 330 331 330 330 330 331 331 332 331 330 332 335 334 334 336 337 337 336 335 333 333 333 333 333 332 331 331 330 330 329 328 327 327 327 327 326 324 324 325 326 326 329 330 327 327 328 329 329 328
330 331 332 333 332 331 328 330 326 326 326 327 328 328 330 331 332 332 332 331 331 332 332 333 335 334 337 336 336 337 337 336 336 334 334 334 334 334 333 331 330 328 330 329 327 326 327 327 323 322 322 321 322 324 326 327 327 327 327 328 329 328
327 328 329 332 328 328 330 331 330 329 328 327 328 331 331 332 333 332 330 330 332 332 333 332 332 334 335 335 336 336 336 337 337 336 334 334 334 333 332 331 330 328 327 328 328 328 328 328 324 322 322 321 319 318 320 323 325 326 327 328 328 328
326 326 326 329 330 330 332 331 330 330 329 331 330 332 331 331 330 331 331 331 332 331 332 332 333 333 334 334 334 335 335 335 336 336 335 333 333 332 332 330 330 329 329 325 326 327 329 328 327 325 319 318 318 316 314 317 319 323 326 327 327 327
324 324 324 326 326 327 328 327 327 327 328 327 328 329 329 328 329 330 331 331 332 333 333 334 333 333 334 333 333 333 333 334 334 335 335 333 331 332 333 332 331 329 328 326 325 327 327 328 328 329 325 319 316 314 315 318 318 320 323 324 325 326
323 323 324 325 325 325 324 322 322 322 322 322 322 324 325 325 327 328 329 331 333 333 334 335 335 335 334 334 332 332 332 333 333 333 333 332 331 332 332 331 332 330 329 329 328 327 326 328 328 328 328 327 325 319 317 319 319 315 320 324 324 326
322 323 324 325 325 324 322 322 322 322 322 322 321 323 327 327 327 328 329 329 330 331 332 332 333 333 333 333 331 330 330 330 330 329 332 331 331 330 330 331 332 331 331 331 330 326 325 327 327 327 328 327 327 325 324 319 316 319 315 319 324 324
322 323 324 324 324 325 322 322 322 322 323 323 323 323 324 325 326 327 325 326 327 328 329 330 330 330 331 331 332 331 329 327 327 328 331 331 330 331 330 331 331 332 332 331 329 327 327 328 325 325 326 325 325 326 326 324 323 319 317 314 318 324
318 319 320 322 322 322 323 322 321 321 321 322 323 323 323 323 322 323 322 323 324 325 326 327 328 328 328 329 330 330 329 328 328 328 330 330 330 330 330 329 329 329 329 330 330 330 328 327 327 325 325 324 325 324 324 324 324 323 318 316 316 318
316 317 318 318 319 320 321 321 320 319 319 319 320 320 320 319 319 320 319 321 322 323 324 325 325 326 326 327 328 329 328 328 328 328 330 329 329 329 329 328 328 328 329 328 329 330 328 329 329 329 327 325 322 322 322 321 321 321 321 321 316 318
315 315 315 315 316 316 318 319 319 319 318 317 318 318 317 317 318 318 318 318 319 320 322 323 324 324 325 325 327 328 328 327 328 328 329 328 328 329 329 329 329 329 328 328 328 329 329 329 328 327 325 325 323 323 321 319 320 321 320 318 318 318
314 313 313 313 313 313 314 315 316 317 316 316 316 316 315 315 316 316 317 317 318 318 319 321 322 322 322 323 325 325 326 326 327 327 327 328 328 329 329 329 329 329 329 330 330 329 329 328 328 327 326 326 325 325 324 322 323 323 321 320 320 319
312 312 312 312 311 311 311 312 313 313 314 315 314 314 314 313 314 314 315 315 315 315 317 317 318 319 319 320 322 322 323 324 324 323 322 322 323 325 327 329 329 329 329 328 328 328 327 327 327 326 326 327 327 326 325 326 325 324 324 323 322 319
311 312 312 310 310 310 310 310 311 311 312 312 312 312 311 311 311 311 312 311 311 312 312 313 314 314 316 318 318 320 322 320 316 315 315 316 317 317 318 322 326 327 327 328 328 328 327 327 327 327 327 326 326 326 326 327 326 325 323 322 321 320
311 311 311 310 310 309 309 310 310 310 311 312 311 310 310 310 309 308 308 308 309 309 309 310 311 312 312 313 314 316 318 315 313 311 312 313 313 313 314 315 316 319 321 323 322 325 326 326 326 326 326 326 326 326 326 327 327 325 325 324 323 322
310 310 310 310 309 309 309 309 309 309 309 311 311 309 308 308 308 308 307 307 307 307 308 308 309 310 309 310 311 312 314 313 310 309 309 309 309 309 311 312 312 312 313 314 314 316 320 324 326 327 327 327 326 326 327 327 327 326 326 326 325 324
309 309 309 309 308 308 308 307 307 308 308 308 308 307 306 306 306 307 307 306 306 307 307 308 308 309 308 308 309 309 310 311 308 307 306 306 306 305 306 308 308 309 310 310 310 311 314 316 319 324 326 326 326 326 327 327 327 327 327 327 326 326
Wind_Speed
6 7 6 5 5 6 8 12 10 12 11 10 9 9 8 9 8 7 6 7 7 5 4 3 3 3 7 4 5 4 5 4 3 3 3 3 4 4 5 6 7 7 7 9 10 9 9 10 11 11 13 13 12 6 5 5 5 4 4 4 5 4
6 7 6 5 4 4 4 7 4 4 4 6 7 7 5 3 5 3 6 6 5 4 4 3 3 4 2 2 2 5 3 3 3 3 2 2 3 3 4 5 6 7 8 10 8 5 4 7 11 11 11 11 6 5 5 5 5 4 4 4 5 4
6 6 6 4 3 2 3 4 3 3 3 5 4 4 3 3 4 4 4 4 4 3 3 2 1 2 2 2 1 3 3 2 1 2 2 1 2 2 3 4 5 7 8 8 4 3 4 3 3 10 10 7 5 5 5 5 4 4 4 4 4 5
6 5 5 4 3 4 3 4 4 3 4 3 4 4 4 4 4 4 4 4 3 3 3 2 3 3 1 2 2 2 2 2 1 1 0 2 3 2 2 4 6 6 5 4 3 3 3 3 3 4 4 4 4 4 5 5 4 4 4 4 4 6
5 5 5 4 4 4 3 4 4 4 4 3 4 4 4 3 3 3 4 3 3 2 2 2 2 2 3 2 2 3 3 3 3 2 5 2 3 3 4 3 3 3 2 3 3 3 3 4 3 4 4 4 4 4 4 3 4 4 4 4 4 6
5 4 4 3 3 4 4 4 4 4 4 3 4 4 4 4 4 4 3 2 3 3 2 2 2 2 2 1 0 1 2 2 2 2 3 2 2 2 2 2 2 3 1 3 3 2 2 3 4 3 3 4 4 4 4 3 3 3 4 4 4 7
5 4 5 3 3 3 3 4 4 3 4 3 3 4 3 3 3 4 3 2 2 2 2 2 2 2 1 1 0 1 1 1 1 0 1 1 2 2 2 2 2 3 2 1 3 3 3 2 3 4 4 4 4 4 4 4 4 3 3 3 4 8
5 5 4 4 4 3 3 3 3 4 3 4 4 3 3 3 3 3 3 2 2 2 2 1 0 1 0 0 1 1 2 2 2 2 1 0 1 2 2 2 2 3 3 2 3 4 3 2 2 2 4 3 4 4 4 4 4 4 4 4 4 7
5 5 4 4 3 3 3 3 3 3 3 4 3 3 3 3 3 3 3 3 3 3 1 1 1 1 1 2 1 1 1 2 2 3 1 1 1 2 2 2 3 3 2 3 2 3 3 3 3 3 4 4 4 4 4 4 4 5 4 4 4 5
5 4 4 4 3 3 3 3 2 3 3 3 3 3 4 3 3 3 2 3 2 2 3 3 3 2 2 4 3 2 2 2 3 2 0 3 2 2 3 2 2 3 3 3 3 2 4 3 4 4 4 5 5 6 5 5 5 5 4 4 4 4
5 5 4 4 4 3 3 3 3 2 2 2 3 3 3 3 3 3 2 2 2 2 2 2 3 3 2 2 2 3 3 3 4 3 2 3 2 3 3 3 4 4 3 3 3 2 3 2 4 4 5 5 5 5 5 4 4 4 5 5 4 4
4 5 5 5 4 3 2 2 2 2 2 2 2 2 2 2 2 1 2 2 2 2 3 2 2 2 2 1 1 1 2 3 4 3 2 2 3 3 3 4 4 4 4 2 2 3 3 3 3 2 3 4 3 4 5 5 5 5 5 5 5 4
4 5 5 5 4 2 1 1 2 2 2 2 2 2 1 2 1 1 1 2 2 2 2 2 2 2 2 1 2 2 2 3 3 4 3 3 3 3 3 3 3 3 3 1 2 3 1 2 2 2 1 2 3 4 4 4 5 5 5 5 5 5
4 5 5 5 4 2 2 1 1 1 2 2 1 1 1 1 1 1 1 1 1 2 2 1 2 2 1 2 3 4 5 4 2 2 3 3 4 3 4 3 4 2 2 1 1 2 2 3 3 1 2 2 3 4 4 5 5 5 5 5 5 5
5 3 4 4 4 3 2 2 1 0 1 0 1 1 1 0 1 1 0 1 1 2 2 2 2 2 3 2 3 3 4 5 4 2 2 3 4 3 2 3 3 5 4 2 3 4 4 5 4 4 4 3 4 3 4 5 5 5 6 5 5 5
4 4 3 4 3 3 2 1 1 1 0 0 2 2 2 1 1 1 1 1 2 2 3 3 3 2 3 3 3 3 4 2 4 4 2 2 2 3 3 3 3 4 6 4 2 4 3 5 5 5 3 2 2 2 3 3 4 4 4 4 5 5
5 4 3 3 3 2 3 2 1 1 1 1 2 2 2 1 0 1 1 1 2 2 3 3 4 4 4 4 4 4 4 1 1 3 2 2 2 2 3 5 5 3 3 4 3 5 5 4 5 5 3 4 3 2 3 3 4 3 2 5 5 4
3 3 4 4 3 2 3 3 2 2 2 2 2 1 0 1 2 2 1 2 2 3 3 3 3 3 3 3 2 2 3 3 1 0 1 1 2 2 2 2 5 2 4 3 3 5 8 4 2 4 4 4 2 3 4 4 4 3 4 5 5 6
4 4 4 5 4 3 4 4 3 3 1 0 0 0 1 1 3 2 2 2 3 3 3 3 2 3 3 3 3 3 4 3 3 2 1 1 1 2 0 2 4 5 1 4 5 6 7 6 5 6 5 4 3 4 3 3 3 4 5 5 5 5
4 4 4 4 3 3 3 3 2 3 2 1 1 2 3 3 2 3 2 2 2 2 2 2 2 2 2 3 2 2 3 3 2 2 2 2 1 1 1 3 4 4 4 2 4 5 5 4 4 5 5 6 5 3 3 3 4 5 5 5 5 4
4 4 4 3 3 2 1 2 1 1 1 2 2 2 2 2 1 1 1 1 1 1 1 1 1 1 1 3 2 1 2 2 2 3 3 3 3 2 2 2 2 3 3 3 2 3 3 3 3 2 2 4 4 3 4 4 4 4 6 6 5 6
5 6 5 4 3 3 2 2 1 1 1 2 3 4 5 5 3 1 0 0 0 0 1 0 1 0 1 1 3 3 3 3 2 3 4 4 3 3 3 3 2 3 2 4 3 3 3 3 1 3 3 3 2 3 6 6 6 5 6 5 6 7
6 6 5 5 4 3 2 1 1 2 1 2 2 3 3 3 4 4 4 3 1 1 1 2 1 1 1 2 2 3 4 4 4 4 4 4 4 3 3 3 3 3 5 2 4 2 3 5 3 2 2 2 3 2 2 3 5 7 7 7 6 8
7 6 6 5 5 4 4 4 3 3 3 4 4 3 3 4 5 5 7 4 5 4 3 3 2 1 0 1 2 3 4 4 4 4 3 4 4 4 4 3 3 4 4 6 3 2 3 5 5 2 4 3 1 0 6 4 3 4 7 8 7 8
7 7 6 6 6 4 4 5 4 4 4 3 3 6 7 7 6 5 5 6 6 5 4 4 3 2 2 2 1 0 1 2 3 3 3 3 4 4 5 5 5 4 3 3 5 3 2 5 6 6 5 1 2 2 5 3 3 5 3 4 7 8
7 7 8 7 6 7 7 6 7 7 6 6 7 6 7 5 6 7 6 4 7 6 5 5 5 4 4 3 3 2 1 2 3 3 2 3 4 4 4 4 3 3 4 5 5 6 4 4 6 6 7 7 5 6 3 1 4 5 1 6 5 6
7 6 6 6 7 7 8 6 7 6 5 5 5 4 2 3 4 4 5 7 6 6 7 7 6 7 6 5 4 3 2 2 3 3 4 4 4 5 4 4 4 4 5 5 6 6 7 5 4 6 7 8 7 5 5 3 5 2 7 2 5 5
8 8 6 7 9 7 6 5 5 5 5 5 5 4 4 4 4 4 6 6 6 6 6 6 7 8 7 7 6 5 5 4 4 4 3 5 5 5 5 5 5 5 6 6 5 6 5 5 6 3 6 9 9 9 9 8 8 8 7 7 7 2
9 8 7 7 8 7 6 5 5 4 5 4 4 4 3 4 5 5 6 6 7 6 6 7 7 8 8 7 6 6 5 5 5 5 4 4 5 5 6 6 6 4 4 5 4 5 5 6 6 7 5 6 7 8 7 8 8 7 6 6 9 9
9 7 7 8 8 8 7 5 6 6 6 5 4 4 4 6 5 5 7 7 6 6 6 6 7 8 8 8 7 6 6 6 6 6 5 5 5 6 6 5 6 5 5 5 5 5 7 6 6 7 7 6 5 4 6 7 7 7 7 9 10 7
7 7 8 8 9 8 8 7 6 6 7 6 5 5 6 7 6 7 7 6 6 5 5 6 5 6 8 8 7 7 7 7 5 5 5 6 5 5 5 5 5 6 6 6 5 7 7 7 6 6 6 6 7 7 6 7 7 7 7 6 8 10
8 8 7 8 9 8 7 7 6 6 7 6 6 6 7 7 7 7 7 7 6 6 7 6 7 7 9 9 8 8 7 7 7 7 8 7 7 7 6 5 5 4 4 5 6 7 7 8 8 7 6 5 7 6 7 7 8 7 8 9 8 9
8 8 9 8 8 7 7 7 7 7 7 6 7 8 7 8 7 7 7 8 8 8 8 8 9 9 9 10 8 8 8 8 8 8 9 9 9 10 9 7 6 5 4 5 5 6 7 7 7 8 7 6 6 7 8 7 7 8 7 7 8 8
8 8 9 9 8 8 8 7 6 7 6 6 8 8 8 8 8 7 8 8 8 7 7 8 8 9 8 8 7 7 7 9 8 9 9 8 8 9 10 9 8 8 7 6 7 8 7 7 6 7 7 8 7 7 7 7 6 7 8 7 8 9
9 9 9 8 7 8 8 8 8 8 8 7 8 8 8 8 8 9 8 8 8 8 8 7 8 8 9 8 8 7 8 8 8 9 9 9 8 8 9 9 8 9 8 8 9 9 8 8 8 8 7 7 7 7 7 7 6 6 7 9 9 9
9 8 8 8 8 7 8 8 9 10 9 8 7 7 8 7 7 7 7 7 7 7 7 7 7 7 8 8 8 8 7 9 9 9 9 9 9 8 9 8 7 7 7 6 7 9 9 9 9 8 7 6 7 7 7 7 7 7 7 9 10 9
9 9 9 8 7 7 8 9 9 10 9 9 9 9 8 8 8 7 7 6 6 6 6 6 6 6 7 8 8 9 8 8 9 9 9 9 9 9 9 7 8 8 8 8 8 7 7 8 10 10 8 8 7 7 7 7 7 7 7 8 8 8
Wind_Direction
123 130 130 133 138 143 156 153 153 152 154 149 142 136 136 142 142 139 123 101 82 68 65 71 78 105 113 113 127 121 120 119 115 108 85 78 62 47 49 54 58 60 59 66 70 74 92 103 111 121 133 138 128 118 130 125 129 135 129 133 132 157
130 135 139 137 144 148 153 149 137 139 145 153 148 140 133 129 117 85 103 85 77 73 67 61 61 79 70 105 128 137 132 123 138 117 97 69 71 46 39 45 49 52 57 64 67 56 52 112 128 128 128 119 110 130 131 135 138 145 137 138 149 175
139 142 134 136 135 123 113 109 118 112 127 146 144 114 97 95 65 86 81 79 75 70 70 60 23 117 119 121 162 162 145 150 130 142 127 104 46 40 36 40 42 55 56 63 62 60 79 53 115 144 132 125 129 133 132 134 139 144 151 157 157 194
142 138 137 137 106 103 109 111 106 97 92 96 86 101 95 90 82 85 93 92 82 88 75 54 17 28 80 42 357 359 181 140 62 23 339 28 359 5 11 26 38 51 60 66 68 71 74 66 87 80 110 129 128 136 142 151 150 152 157 172 174 202
136 142 138 144 136 125 112 102 97 98 97 88 98 98 99 93 94 89 90 92 106 98 74 55 33 27 59 35 24 18 21 33 15 17 27 28 14 8 23 355 7 27 43 86 84 71 70 84 95 120 129 137 130 132 144 151 155 157 172 183 187 206
141 136 140 125 119 148 122 112 107 116 106 105 116 109 96 98 94 96 95 105 108 89 74 63 42 40 64 64 46 26 32 39 34 3 16 2 354 16 5 4 345 352 0 96 114 115 109 113 124 133 142 146 146 150 155 164 167 173 181 191 200 198
139 134 131 117 120 109 113 118 114 114 115 107 109 110 105 109 117 119 115 125 114 92 67 57 48 43 51 30 5 335 328 18 73 51 348 31 348 344 349 341 327 325 332 144 125 127 119 118 146 149 158 165 166 163 168 169 178 183 197 206 216 205
138 137 128 122 122 112 107 106 135 151 116 146 122 112 114 128 127 120 139 144 108 108 124 102 54 59 40 50 220 229 234 247 269 251 223 91 326 322 326 320 315 311 324 289 134 138 143 172 204 155 161 174 180 174 181 178 177 189 194 209 220 220
145 144 122 113 118 101 102 102 108 105 135 154 113 133 141 129 120 125 129 146 139 132 122 157 234 226 176 240 250 277 264 255 261 262 144 286 211 282 304 310 314 310 306 311 321 124 134 149 191 191 176 182 191 195 186 182 190 194 195 201 221 250
138 129 120 109 97 109 117 118 113 126 180 143 144 138 137 124 122 123 125 146 153 160 180 192 222 237 216 265 278 297 307 306 291 299 91 270 216 217 256 294 300 301 304 317 330 2 129 160 187 201 196 184 193 197 194 189 189 193 189 192 219 253
122 129 110 113 111 106 120 128 132 138 146 124 152 133 117 117 111 110 129 141 149 170 173 185 195 212 215 244 273 290 293 315 296 291 230 251 238 230 233 237 256 274 288 299 318 311 325 168 183 203 208 199 192 184 197 195 192 183 188 194 197 217
101 112 112 108 119 119 133 148 139 115 115 106 127 99 113 113 121 130 144 157 184 190 191 193 199 203 217 221 230 244 275 290 284 301 239 258 277 253 237 247 251 250 258 291 317 319 283 297 283 222 193 212 178 181 193 191 190 191 192 191 193 206
85 94 92 110 107 116 95 91 113 110 119 127 113 109 118 136 138 156 175 195 204 203 217 204 205 213 240 261 296 275 222 218 254 289 301 268 262 276 259 265 269 280 300 6 353 325 354 49 285 310 204 212 169 195 190 187 190 184 196 197 193 194
98 98 103 104 112 95 119 123 110 89 125 120 124 131 201 165 168 160 185 223 235 258 265 241 222 249 231 266 293 299 302 295 251 238 261 285 292 251 263 268 273 310 279 124 219 262 331 304 279 259 244 232 203 204 185 194 194 192 186 196 194 196
122 117 131 125 136 149 148 169 171 107 96 129 258 227 264 230 164 232 195 262 278 280 284 277 261 260 296 320 310 313 310 307 324 284 224 235 257 287 264 278 312 283 272 241 186 219 217 237 250 253 231 191 217 205 199 203 196 195 191 191 187 200
120 136 122 128 114 145 163 151 101 226 134 79 276 288 288 260 189 154 211 226 238 257 258 245 270 257 283 288 291 298 293 342 336 321 284 261 239 272 271 263 236 254 275 273 261 267 233 233 236 247 233 207 230 213 228 236 222 214 207 191 203 199
147 142 118 109 99 102 97 101 103 10 208 255 249 261 265 276 331 233 206 232 233 244 246 238 231 238 255 264 258 264 290 86 295 299 303 287 257 251 250 274 268 204 217 267 316 323 291 260 243 247 239 218 200 172 212 211 223 219 177 211 214 210
120 94 84 89 105 119 118 129 141 174 215 191 223 176 38 340 298 276 237 244 234 237 238 214 226 232 245 256 288 304 324 326 307 148 264 305 263 291 276 252 281 274 198 241 212 247 273 276 326 303 282 256 202 183 196 213 211 210 196 219 219 214
101 83 86 102 101 85 86 80 72 55 57 82 101 130 172 213 231 235 258 252 230 234 238 222 215 216 231 254 267 261 281 299 334 355 331 277 268 263 342 286 267 288 212 194 225 225 231 230 204 248 263 279 259 217 185 182 193 212 208 213 221 230
74 98 107 101 109 71 54 56 39 5 8 352 344 283 248 233 207 203 208 214 243 252 252 254 225 218 235 240 222 212 237 256 258 269 304 312 266 252 263 236 248 254 283 249 208 223 230 206 186 196 217 237 236 245 240 186 185 199 216 220 218 209
65 82 86 107 98 108 79 19 54 70 301 264 271 284 285 284 315 297 299 201 211 227 237 273 287 285 267 300 316 322 279 254 230 255 273 295 305 303 262 260 278 236 248 267 240 212 217 173 189 269 180 236 266 226 247 228 213 198 214 221 216 219
61 63 61 70 114 117 146 132 127 271 262 289 360 10 353 5 355 346 338 28 71 238 270 116 29 110 350 340 317 308 288 281 268 246 241 242 252 267 282 292 301 306 217 272 262 202 197 139 110 229 302 335 297 262 227 221 224 223 213 216 213 218
59 60 46 48 61 74 86 107 107 333 48 356 67 34 36 1 4 16 15 16 26 66 74 57 62 15 317 296 298 302 295 285 269 267 272 262 242 246 250 266 258 279 303 249 256 229 174 190 230 139 123 347 294 330 4 276 249 242 225 210 204 214
62 57 49 32 48 43 59 65 67 41 46 80 56 45 77 49 46 47 42 38 49 42 68 87 82 93 91 303 330 309 304 299 296 288 287 295 314 315 291 258 245 241 253 298 303 286 212 196 207 144 289 220 222 138 304 264 262 248 213 223 209 223
70 67 57 43 41 49 63 59 68 86 69 43 27 31 36 30 25 35 40 33 28 29 45 79 101 95 83 98 122 142 270 281 281 287 292 302 306 294 298 274 254 240 225 251 286 278 238 219 217 204 205 242 293 251 226 268 300 263 193 197 221 219
76 64 60 50 49 54 54 56 51 44 35 40 47 30 37 25 23 30 24 19 35 25 25 43 50 49 38 39 25 355 267 276 284 273 255 254 265 283 281 295 272 235 240 222 242 256 268 211 222 220 226 222 211 258 246 197 28 290 342 217 232 215
74 69 62 68 63 62 57 54 66 79 85 75 81 49 36 31 39 45 39 36 33 28 30 33 33 34 24 16 6 346 337 316 312 303 306 305 300 288 276 274 281 266 254 240 225 251 257 252 220 226 226 230 235 236 228 234 238 290 291 311 228 234
61 58 47 59 61 52 66 61 61 61 68 60 52 57 30 35 35 40 48 38 35 30 25 30 37 34 26 16 0 351 346 347 348 332 328 318 301 294 291 286 275 271 282 276 260 241 236 222 250 248 212 230 227 233 233 228 234 235 258 277 276 238
58 53 40 47 68 59 58 63 66 60 70 55 53 53 48 38 37 25 47 35 37 25 23 24 31 35 25 14 6 352 352 1 355 344 341 319 305 300 292 291 291 283 281 288 289 286 275 259 234 243 243 240 233 232 225 223 228 214 224 240 258 260
48 51 47 47 50 54 56 58 62 56 60 54 51 50 48 42 34 22 41 34 28 26 18 18 19 30 23 16 7 1 7 11 354 340 339 320 312 303 293 282 273 268 268 270 264 275 281 276 258 254 237 248 247 244 234 232 221 220 229 228 250 251
46 43 43 47 50 46 41 43 55 54 54 49 40 46 45 36 28 30 33 27 27 21 18 23 13 22 30 15 7 7 13 11 1 353 346 337 323 309 293 290 283 274 263 264 277 272 263 266 281 280 257 240 237 237 226 233 232 222 227 235 238 245
50 50 44 44 48 42 45 43 45 46 53 45 42 45 45 37 24 27 23 23 15 22 19 16 17 23 22 9 7 11 5 17 17 16 12 350 338 324 311 296 277 260 269 274 279 286 282 272 263 260 255 241 243 235 232 231 244 233 221 235 233 246
51 46 45 42 44 38 39 35 35 39 39 39 44 43 41 39 24 29 21 27 21 23 18 17 14 16 11 8 4 5 5 22 18 21 21 13 4 358 348 330 306 296 284 283 277 276 283 280 280 281 282 266 252 242 242 239 238 243 243 244 240 250
50 45 45 41 35 38 35 32 33 35 34 37 45 46 45 43 34 36 32 33 28 23 23 19 11 13 357 1 2 2 5 36 30 24 21 14 12 8 2 349 345 334 326 315 304 294 283 278 277 272 267 270 262 257 250 248 236 241 245 244 244 242
57 42 42 36 32 36 34 36 38 41 42 49 54 53 51 47 41 39 34 36 30 24 24 17 13 7 2 4 2 6 19 37 27 25 16 12 9 10 6 359 358 355 354 358 345 327 307 291 290 282 262 250 257 256 255 251 246 246 244 243 244 246
58 48 42 41 39 43 44 46 42 44 45 50 53 56 52 47 46 45 43 39 32 27 22 17 12 10 8 5 4 10 18 38 26 25 18 11 9 8 2 359 353 353 349 356 340 337 332 322 306 290 278 268 262 261 259 258 248 239 241 246 246 246
56 52 48 46 44 44 48 49 43 45 45 48 50 51 52 49 47 45 44 40 35 29 24 21 14 11 11 12 8 15 12 33 24 22 16 14 12 8 0 360 353 344 346 345 340 336 332 333 329 318 300 278 268 265 263 263 256 248 248 252 250 249